TimeMDT,TemperatureF,Dew PointF,Humidity,Sea Level PressureIn,VisibilityMPH,Wind Direction,Wind SpeedMPH,Gust SpeedMPH,PrecipitationIn,Events,Conditions,WindDirDegrees,DateUTC
12:35 AM,37.4,21.2,52,30.13,10.0,SE,3.5,-,N/A,,Clear,140,2012-10-08 06:35:00
1:15 AM,39.2,23.0,52,30.13,10.0,ESE,4.6,-,N/A,,Clear,120,2012-10-08 07:15:00
1:55 AM,37.4,24.8,60,30.14,10.0,Calm,Calm,-,N/A,,Clear,0,2012-10-08 07:55:00
2:15 AM,39.2,21.2,49,30.14,10.0,Calm,Calm,-,N/A,,Clear,0,2012-10-08 08:15:00
2:35 AM,37.4,21.2,52,30.14,10.0,Calm,Calm,-,N/A,,Clear,0,2012-10-08 08:35:00
2:55 AM,35.6,21.2,56,30.14,10.0,SSE,3.5,-,N/A,,Clear,150,2012-10-08 08:55:00
3:15 AM,35.6,21.2,56,30.14,10.0,Calm,Calm,-,N/A,,Clear,0,2012-10-08 09:15:00
3:35 AM,33.8,21.2,60,30.13,10.0,East,3.5,-,N/A,,Clear,100,2012-10-08 09:35:00
3:55 AM,33.8,21.2,60,30.13,10.0,East,4.6,-,N/A,,Clear,100,2012-10-08 09:55:00
4:16 AM,33.8,21.2,60,30.12,10.0,ESE,4.6,-,N/A,,Clear,110,2012-10-08 10:16:00
4:35 AM,35.6,24.8,65,30.12,10.0,ESE,3.5,-,N/A,,Clear,120,2012-10-08 10:35:00
4:55 AM,35.6,21.2,56,30.12,10.0,Calm,Calm,-,N/A,,Clear,0,2012-10-08 10:55:00
5:15 AM,33.8,23.0,65,30.12,10.0,Calm,Calm,-,N/A,,Clear,0,2012-10-08 11:15:00
5:35 AM,33.8,21.2,60,30.12,10.0,Calm,Calm,-,N/A,,Clear,0,2012-10-08 11:35:00
6:15 AM,33.8,19.4,56,30.12,10.0,Calm,Calm,-,N/A,,Clear,0,2012-10-08 12:15:00
6:48 AM,32.0,19.4,60,30.12,15.0,Variable,3.5,-,N/A,,Partly Cloudy,0,2012-10-08 12:48:00
7:49 AM,32.0,23.0,69,30.12,15.0,Variable,3.5,-,N/A,,Partly Cloudy,0,2012-10-08 13:49:00
8:47 AM,37.4,24.8,60,30.13,15.0,Variable,3.5,-,N/A,,Partly Cloudy,0,2012-10-08 14:47:00
9:55 AM,48.2,21.2,34,30.12,15.0,SSE,9.2,-,N/A,,Partly Cloudy,150,2012-10-08 15:55:00
10:48 AM,51.8,19.4,28,30.10,15.0,ESE,6.9,-,N/A,,Partly Cloudy,120,2012-10-08 16:48:00
11:52 AM,55.4,21.2,26,30.09,15.0,Calm,Calm,-,N/A,,Partly Cloudy,0,2012-10-08 17:52:00
12:48 PM,60.8,28.4,29,30.07,15.0,Variable,5.8,-,N/A,,Partly Cloudy,0,2012-10-08 18:48:00
1:51 PM,60.8,26.6,27,30.04,15.0,WSW,5.8,-,N/A,,Partly Cloudy,250,2012-10-08 19:51:00
2:47 PM,62.6,32.0,32,30.01,15.0,West,4.6,-,N/A,,Partly Cloudy,260,2012-10-08 20:47:00
3:47 PM,64.4,35.6,34,29.99,15.0,NW,4.6,-,N/A,,Partly Cloudy,310,2012-10-08 21:47:00
4:52 PM,66.2,33.8,30,29.98,15.0,Variable,4.6,-,N/A,,Partly Cloudy,0,2012-10-08 22:52:00
6:50 PM,60.8,35.6,39,29.96,15.0,Variable,5.8,-,N/A,,Partly Cloudy,0,2012-10-09 00:50:00
8:50 PM,51.8,39.2,62,29.97,15.0,Variable,5.8,-,N/A,,Clear,0,2012-10-09 02:50:00
9:15 PM,51.8,41.0,67,29.97,10.0,ESE,3.5,-,N/A,,Clear,120,2012-10-09 03:15:00
9:55 PM,48.2,37.4,66,29.98,10.0,Calm,Calm,-,N/A,,Clear,0,2012-10-09 03:55:00
10:15 PM,46.4,37.4,71,29.98,10.0,Calm,Calm,-,N/A,,Clear,0,2012-10-09 04:15:00
10:35 PM,48.2,35.6,62,29.98,10.0,South,3.5,-,N/A,,Clear,180,2012-10-09 04:35:00
10:55 PM,48.2,37.4,66,29.98,10.0,Calm,Calm,-,N/A,,Clear,0,2012-10-09 04:55:00
11:15 PM,50.0,33.8,54,29.98,10.0,Calm,Calm,-,N/A,,Clear,0,2012-10-09 05:15:00
11:35 PM,44.6,35.6,71,29.98,10.0,Calm,Calm,-,N/A,,Clear,0,2012-10-09 05:35:00
11:55 PM,44.6,35.6,71,29.97,10.0,Calm,Calm,-,N/A,,Clear,0,2012-10-09 05:55:00